Regional Weather Roundup
Issued by NWS

Home | Current Version | Previous Version | Text Only | Print | Product List | Glossary Off
Versions: 1 2 3 4 5 6 7 8 9 10 11 12 13 14 15 16 17 18 19 20 21 22 23 24 25 26 27 28 29 30 31 32 33 34 35 36 37 38 39 40 41 42 43 44 45 46 47 48 49 50

000
ASUS43 KOAX 010010
RWRNE

WEATHER ROUNDUP FOR NEBRASKA
NATIONAL WEATHER SERVICE OMAHA NE
700 PM CDT MON AUG 31 2015

NOTES: SATELLITE DATA IS BEING USED TO AUGMENT CLOUD COVER ABOVE
       12000 FEET.
       "FAIR" INDICATES FEW OR NO CLOUDS BELOW 12,000 FEET WITH NO
       SIGNIFICANT WEATHER AND/OR OBSTRUCTIONS TO VISIBILITY.

  * THESE STATIONS DO NOT REPORT WEATHER SUCH AS RAIN...SNOW OR FOG.

NEZ001>004-019>022-054>056-010100-
NEBRASKA PANHANDLE

CITY           SKY/WX    TMP DP  RH WIND       PRES   REMARKS
SCOTTSBLUFF    PTSUNNY   80  54  40 SE8       29.99R
6HR MIN TEMP:  80; 6HR MAX TEMP:  88;

ALLIANCE       MOSUNNY   80  50  34 E8        29.99S
6HR MIN TEMP:  78; 6HR MAX TEMP:  85;

CHADRON        PTSUNNY   83  54  36 SE12      29.93F
6HR MIN TEMP:  76; 6HR MAX TEMP:  85;

KIMBALL        RAIN      73  57  58 W18       30.06R
SIDNEY         MOSUNNY   83  49  30 E10       30.02S
6HR MIN TEMP:  80; 6HR MAX TEMP:  88;

$$

NEZ057>060-069>072-079>082-010100-
SOUTHWEST NEBRASKA

CITY           SKY/WX    TMP DP  RH WIND       PRES   REMARKS
NORTH PLATTE   MOSUNNY   85  66  53 E10       29.90S
6HR MIN TEMP:  83; 6HR MAX TEMP:  92;

IMPERIAL       PTSUNNY   86  60  41 N8        29.92S
6HR MIN TEMP:  86; 6HR MAX TEMP:  95;

LEXINGTON      SUNNY     88  66  48 SE9       29.89S HX  90
MCCOOK         SUNNY     96  53  23 E5        29.86S HX  93
6HR MIN TEMP:  86; 6HR MAX TEMP:  98;

OGALLALA       CLOUDY    84  55  36 N10G16    29.94F
$$

NEZ005>010-023>029-035>040-094-010100-
NORTH CENTRAL NEBRASKA

CITY           SKY/WX    TMP DP  RH WIND       PRES   REMARKS
VALENTINE      PTSUNNY   78  60  53 N8        29.95S
6HR MIN TEMP:  76; 6HR MAX TEMP:  86; 6HR PCP: TRACE;

AINSWORTH      PTSUNNY   78  65  63 NE5       29.94S
BROKEN BOW     MOSUNNY   87  66  49 S8        29.91R
6HR MIN TEMP:  84; 6HR MAX TEMP:  91;

O`NEILL        SUNNY     85  68  55 N6        29.89S
ORD            SUNNY     87  65  47 SE8       29.88S
6HR MIN TEMP:  85; 6HR MAX TEMP:  92;

THEDFORD       CLOUDY    82  60  46 NE5       29.95S
$$

NEZ041-046>049-061>064-073>077-083>087-010100-
SOUTH CENTRAL NEBRASKA

CITY           SKY/WX    TMP DP  RH WIND       PRES   REMARKS
GRAND ISLAND   SUNNY     85  69  58 SE7       29.90S
6HR MIN TEMP:  83; 6HR MAX TEMP:  91;

AURORA         SUNNY     83  69  61 SE5       29.89S
HASTINGS       SUNNY     87  66  49 SE12      29.88F
6HR MIN TEMP:  83; 6HR MAX TEMP:  92;

HEBRON         SUNNY     86  63  46 SE8       29.89S
HOLDREGE       SUNNY     87  63  44 SE8       29.89S
KEARNEY *      SUNNY     88  66  48 SE6       29.89F HX  90
YORK           SUNNY     84  72  65 CALM      29.89F
$$

NEZ011>018-030>034-042>045-010100-
NORTHEAST NEBRASKA

CITY           SKY/WX    TMP DP  RH WIND       PRES   REMARKS
NORFOLK        SUNNY     82  71  69 SE7       29.89F
6HR MIN TEMP:  81; 6HR MAX TEMP:  85;

ALBION         SUNNY     82  69  66 SE7       29.91S
BLAIR          SUNNY     80  67  64 SE5       29.91S
COLUMBUS *     SUNNY     82  70  65 SE5       29.89S
FREMONT        SUNNY     82  69  63 SE5       29.90S
TEKAMAH        SUNNY     80  72  76 SE5       29.90S
6HR MIN TEMP:  80; 6HR MAX TEMP:  85;

WAYNE          SUNNY     79  70  73 S7        29.90S
$$

NEZ050>053-065>068-078-088>093-010100-
SOUTHEAST NEBRASKA

CITY           SKY/WX    TMP DP  RH WIND       PRES   REMARKS
LINCOLN        SUNNY     86  69  56 S12       29.89F HX  90
6HR MIN TEMP:  84; 6HR MAX TEMP:  88;

OMAHA EPPLEY   MOSUNNY   84  66  54 S13       29.90F
6HR MIN TEMP:  81; 6HR MAX TEMP:  86;

BEATRICE       SUNNY     85  69  56 SE7       29.90S
FALLS CITY     CLEAR     84  72  67 SE8       29.90F
6HR MIN TEMP:  84; 6HR MAX TEMP:  90;

NEBRASKA CITY  CLEAR     82  66  57 SE5       29.91F
PLATTSMOUTH    SUNNY     81  68  64 SE3       29.91S
$$

NEZ044-045-051>053-067-010100-
OMAHA AREA

CITY           SKY/WX    TMP DP  RH WIND       PRES   REMARKS
OMAHA EPPLEY   MOSUNNY   84  66  54 S13       29.90F
6HR MIN TEMP:  81; 6HR MAX TEMP:  86;

BLAIR          SUNNY     80  67  64 SE5       29.91S
FREMONT        SUNNY     82  69  63 SE5       29.90S
MILLARD        SUNNY     82  70  66 SE6       29.89F
OFFUTT AFB     SUNNY     82  71  68 E7        29.90S
PLATTSMOUTH    SUNNY     81  68  64 SE3       29.91S
WAHOO          FAIR      82  72  73 SE5       29.90S
$$




USA.gov is the U.S. government's official web portal to all federal, state and local government web resources and services.